Overview Statistics Trail Chart Weather Telemetry Raw packets
 

This is the latest recevied weather packets stored in our database for station/object WX5RP. If no packets are shown the sender has not sent any weather packets the latest 10 day(s).

<< 7 8 9 10 11 12 13 >>
Time Temp. Humidity Pressure Rain* Wind** Luminosity Snow
1777857916 20.56° C 35% 1010.6 hPa 0 mm - 106 W/m² -
1777857316 20.56° C 32% 1010.5 hPa 0 mm - 113 W/m² -
1777856716 21.67° C 31% 1010.8 hPa 0 mm - 99 W/m² -
1777856116 22.22° C 27% 1011.1 hPa 0 mm - 357 W/m² -
1777855515 22.78° C 29% 1011.2 hPa 0 mm - 309 W/m² -
1777854929 22.78° C 26% 1011.2 hPa 0 mm - 446 W/m² -
1777854315 22.22° C 31% 1011.8 hPa 0 mm - 527 W/m² -
1777853715 21.11° C 31% 1011.5 hPa 0 mm - 250 W/m² -
1777853115 22.22° C 30% 1011.6 hPa 0 mm - 450 W/m² -
1777852515 22.22° C 27% 1011.3 hPa 0 mm - 228 W/m² -
1777851915 23.89° C 24% 1011.8 hPa 0 mm - 399 W/m² -
1777851316 24.44° C 26% 1012.1 hPa 0 mm - 795 W/m² -
1777850716 23.33° C 22% 1011.4 hPa 0 mm - 460 W/m² -
1777850116 24.44° C 21% 1011.7 hPa 0 mm - 620 W/m² -
1777849515 24.44° C 22% 1012.1 hPa 0 mm - 828 W/m² -
1777848915 22.78° C 22% 1012.5 hPa 0 mm - 873 W/m² -
1777848315 22.22° C 27% 1012.3 hPa 0 mm - 256 W/m² -
1777847717 24.44° C 26% 1012.5 hPa 0 mm - 306 W/m² -
1777847117 23.89° C 22% 1012.8 hPa 0 mm - 990 W/m² -
1777846517 23.33° C 22% 1012.7 hPa 0 mm - 268 W/m² -
1777845917 23.33° C 24% 1012.9 hPa 0 mm - 220 W/m² -
1777845317 24.44° C 21% 1013.5 hPa 0 mm - 831 W/m² -
1777844717 23.33° C 25% 1013.5 hPa 0 mm - 985 W/m² -
1777844117 23.33° C 30% 1014 hPa 0 mm - 265 W/m² -
1777843517 22.22° C 32% 1014.1 hPa 0 mm - 307 W/m² -

* Rain latest hour (hover to see other rain measurements)
** Current wind speed in m/s (hover to see current wind gust speed)